Theta_e
346 348 352 356 356 356 356 357 357 357 357 356 356 356 356 355 355 355 354 354 354 354 354 354 354 353 353 352 352 352 351 352 352 352 353 353 353 353 353 352 352 351 349 348 348 347 346 345 344 344 345 346 347 348 347 347 348 348 348 348 348 348 349 349 349 349 348 347 348 348 347 347 347 347 348 347 345 345 345 345 343 340 339 340 342
345 349 352 354 356 356 356 357 356 356 357 356 356 356 355 355 355 355 354 354 354 354 354 353 353 352 352 352 351 350 350 350 351 351 351 352 352 352 352 351 351 351 350 349 349 348 346 345 345 344 345 346 347 348 348 347 347 347 348 347 347 348 347 347 348 349 348 348 347 346 346 346 347 346 346 347 346 345 344 343 343 339 337 342 342
348 349 352 354 356 357 357 356 356 356 356 356 356 355 355 355 355 354 354 354 354 354 354 353 352 352 351 350 350 350 350 350 349 349 349 349 350 349 350 350 349 349 349 349 349 348 348 347 346 346 346 347 347 347 348 348 347 347 347 347 347 347 347 346 346 346 348 346 345 346 346 347 346 346 345 346 346 345 345 344 343 342 337 341 342
347 348 351 354 356 356 356 356 356 356 356 356 356 355 355 355 355 354 354 354 354 354 353 353 351 351 351 350 349 349 349 348 348 348 347 347 347 349 349 348 348 348 349 348 348 349 349 348 348 348 348 347 347 347 347 347 347 347 347 346 348 348 347 347 347 346 347 347 344 344 343 336 342 346 346 345 344 344 344 344 343 343 342 341 341
347 349 351 352 353 355 356 356 356 356 356 356 356 355 355 355 354 354 354 354 354 354 353 352 352 351 350 350 350 349 348 347 346 346 345 345 346 347 347 347 348 348 349 348 348 348 348 348 348 348 348 348 347 347 346 346 347 347 348 348 348 349 349 348 348 348 346 345 347 344 337 338 339 346 346 346 345 345 345 344 344 343 343 342 342
347 349 350 350 351 354 356 356 356 356 356 356 355 355 355 354 355 355 354 354 354 354 353 352 352 351 350 350 349 348 347 346 344 344 344 345 346 346 346 347 347 348 348 348 348 349 349 349 349 349 349 349 348 348 348 348 349 349 349 349 350 351 350 350 349 350 348 348 348 340 336 337 339 343 347 347 345 345 345 345 344 342 342 342 341
348 349 349 349 350 353 355 355 355 356 355 355 355 355 355 354 355 355 355 354 354 353 353 352 351 351 350 350 349 348 347 347 346 346 345 343 343 344 345 346 347 347 347 348 348 349 349 349 349 350 350 350 350 350 350 350 350 351 350 351 351 351 351 350 351 352 351 349 342 335 335 338 339 342 347 347 346 345 345 344 344 344 343 342 341
348 349 349 349 350 354 355 355 355 355 355 355 355 354 355 355 355 354 355 354 354 354 353 352 351 351 350 350 349 348 347 346 344 343 343 343 343 343 344 346 346 346 347 348 349 349 349 349 350 350 351 352 352 352 351 352 352 351 352 351 351 350 350 351 352 348 346 340 338 335 336 338 339 342 348 348 346 346 346 345 344 344 344 343 342
346 348 349 349 351 355 355 355 355 354 354 355 354 354 354 355 355 354 354 354 354 354 354 352 351 351 350 350 349 348 348 347 345 344 345 345 344 344 345 345 346 346 347 348 348 349 348 348 349 350 350 350 351 351 351 352 352 351 352 350 351 349 350 352 350 346 341 337 337 333 336 337 339 339 347 347 345 346 345 344 344 344 343 343 342
346 348 348 349 350 355 354 354 354 354 354 354 354 354 354 354 354 354 354 355 354 354 354 353 351 351 350 349 349 348 347 345 343 343 345 345 344 344 344 345 346 347 347 348 348 349 347 347 348 349 349 349 348 349 349 349 351 350 351 350 350 352 351 352 347 345 336 332 333 335 337 344 339 341 346 348 348 347 346 346 346 344 343 343 343
346 347 348 348 351 354 353 354 354 354 354 354 354 354 354 355 354 354 354 354 354 354 353 353 351 350 349 349 348 348 348 346 344 344 344 344 344 344 345 345 346 347 347 349 349 348 347 348 349 349 349 349 349 349 350 350 350 351 352 350 351 350 349 350 343 336 337 330 332 333 343 346 337 339 348 348 348 347 347 347 346 345 344 344 343
345 346 347 349 354 353 353 354 354 354 354 354 354 354 354 354 354 354 354 354 354 354 353 352 351 350 349 349 349 349 348 347 345 344 345 345 345 345 345 345 346 347 348 348 347 347 347 349 349 350 349 349 349 350 349 351 350 351 350 351 350 351 353 349 338 334 335 334 337 339 342 343 340 346 349 348 348 348 348 347 346 345 345 344 343
345 346 347 349 350 353 354 354 354 354 354 354 354 354 354 354 354 354 354 354 354 353 352 351 350 350 349 349 349 349 348 346 344 344 344 345 345 344 345 345 346 348 347 347 347 347 349 349 349 348 348 348 348 349 349 350 350 352 353 352 351 351 352 348 339 336 334 334 337 338 338 339 341 349 348 349 348 348 348 347 347 346 345 344 343
344 346 348 349 350 355 354 353 353 354 354 354 354 354 354 354 354 354 354 354 353 353 352 351 350 350 350 349 349 348 347 346 344 344 345 345 345 345 345 345 346 346 346 346 347 348 348 348 346 348 347 346 348 349 350 350 349 351 351 351 351 351 350 346 344 336 336 334 336 335 338 341 342 350 349 349 349 349 349 348 347 346 345 344 344
344 346 347 348 350 351 355 354 354 354 354 354 354 354 354 354 354 354 354 354 353 353 352 351 350 350 350 349 348 347 346 345 345 344 344 344 344 344 345 345 345 346 345 346 346 347 347 347 346 346 348 346 348 347 349 349 351 350 349 350 350 351 351 346 342 337 335 338 339 339 338 340 349 350 350 349 349 349 349 348 347 346 345 344 343
346 346 347 348 350 350 351 354 354 354 354 354 354 354 354 354 354 354 354 353 353 352 352 351 350 350 350 348 348 347 346 345 344 343 343 343 343 344 343 344 344 345 345 345 345 347 346 346 347 347 347 347 347 348 348 348 348 349 349 349 349 350 351 351 339 336 333 333 335 338 337 343 350 351 349 349 349 349 349 349 348 346 345 344 343
345 346 346 347 349 349 349 351 353 355 354 354 354 354 354 354 354 354 353 353 352 352 351 351 351 350 349 349 348 347 346 345 345 344 343 343 343 343 343 344 344 344 345 345 345 346 346 346 348 346 348 347 347 348 347 347 348 347 348 348 347 348 349 348 335 334 335 338 336 335 337 342 349 351 348 348 348 348 348 348 348 347 346 345 344
344 345 345 346 347 348 349 350 351 352 351 353 354 353 354 353 353 353 353 353 352 352 351 351 351 350 349 348 347 346 346 345 344 344 343 343 343 343 343 344 344 344 344 345 345 344 346 346 346 346 347 346 347 347 347 348 348 347 347 347 347 347 348 344 334 336 339 342 337 341 339 349 350 349 347 347 348 348 348 348 347 347 345 345 344
344 345 345 346 346 347 348 350 351 350 350 350 350 352 354 354 353 353 353 352 352 352 351 351 350 349 349 347 347 346 346 345 344 343 342 343 343 343 343 343 344 344 344 345 346 345 346 346 346 346 346 347 347 346 348 347 347 347 347 347 347 347 343 339 335 338 340 339 340 341 342 349 350 350 349 349 349 349 348 348 347 347 347 346 343
343 343 344 345 346 346 348 350 350 350 350 350 350 350 353 353 353 353 353 352 352 351 351 350 350 349 348 347 346 345 345 343 344 341 342 343 342 341 342 342 343 343 343 344 344 346 346 346 346 345 345 346 346 346 346 346 347 347 347 347 347 344 335 334 336 338 341 346 346 344 349 350 350 350 350 350 349 349 348 347 346 346 346 345 345
341 342 343 344 345 346 347 349 350 350 349 350 350 349 351 353 353 353 353 352 351 351 350 350 349 349 347 346 347 340 335 336 338 335 342 339 342 342 343 343 342 343 344 344 345 345 346 346 346 345 346 346 346 345 345 345 344 345 345 347 347 336 335 334 336 341 342 344 346 347 351 350 350 350 350 349 349 348 347 346 346 346 346 345 345
338 339 341 343 344 346 347 348 349 349 349 350 350 350 350 352 350 349 350 350 350 350 348 346 350 343 347 344 338 340 332 330 332 343 337 339 340 342 343 343 343 343 344 344 345 345 346 346 346 346 346 346 346 340 338 340 342 344 345 347 338 334 333 336 339 342 344 345 347 348 349 349 349 349 349 349 348 347 346 345 346 345 345 344 344
335 337 339 341 343 345 347 347 348 348 349 349 350 350 349 348 348 348 348 349 349 349 344 347 341 340 341 339 339 335 332 332 334 340 339 343 338 343 344 343 344 343 343 344 345 345 345 346 346 346 346 346 341 334 334 334 333 341 342 336 334 334 336 339 341 343 344 345 345 348 348 348 348 347 347 348 346 346 345 345 344 344 344 344 344
335 336 337 341 343 343 344 346 347 347 348 348 349 349 348 347 346 346 346 346 346 345 341 342 340 339 339 336 335 335 334 331 344 343 343 339 337 342 344 343 344 343 344 344 345 345 345 344 344 344 345 341 335 332 334 335 334 334 333 333 332 335 339 341 342 342 343 345 345 347 347 346 347 347 347 347 346 345 345 343 344 344 343 343 342
336 337 338 340 340 341 343 344 346 346 347 348 348 348 347 346 345 345 344 344 344 342 341 340 338 336 335 336 335 335 335 333 333 333 335 333 329 330 334 333 335 332 343 332 332 337 337 333 332 333 329 330 331 331 333 334 335 335 333 333 335 339 340 341 342 342 342 343 345 346 345 345 345 346 346 346 345 344 345 344 343 342 342 341 341
337 336 337 339 339 341 342 344 344 345 346 347 347 348 347 345 345 345 344 343 342 341 339 338 335 334 333 334 337 335 335 333 332 331 333 332 332 331 332 329 330 330 335 331 333 334 334 332 330 329 328 331 331 332 333 337 335 334 334 335 338 338 338 339 340 341 341 342 344 344 342 342 341 342 342 343 342 342 342 342 342 342 341 340 339
336 335 338 339 339 340 342 343 343 345 345 347 347 347 345 346 345 345 343 341 341 339 338 337 336 332 331 335 335 334 334 333 333 332 331 332 332 332 332 332 331 329 331 331 331 332 331 331 333 332 334 336 338 336 335 335 334 335 335 336 338 337 337 337 338 339 340 340 340 341 339 338 336 336 337 337 335 335 336 337 338 339 340 338 336
335 335 337 338 339 339 341 342 343 344 345 346 345 345 344 344 344 346 343 343 341 339 339 338 337 334 331 333 339 335 334 334 334 332 331 332 332 331 331 330 331 330 331 333 331 330 332 335 336 336 336 336 336 335 334 334 331 330 335 337 338 337 336 336 337 337 337 336 335 336 335 333 333 333 333 332 332 332 332 335 335 336 337 335 333
334 335 336 337 337 339 340 340 343 344 345 345 344 344 343 343 343 343 342 345 341 340 339 339 337 335 332 333 338 332 329 332 333 333 331 331 330 330 330 329 328 328 330 331 332 333 334 336 335 335 334 334 333 333 333 330 331 336 338 339 338 336 335 335 335 335 334 332 330 330 331 330 330 330 331 330 330 330 330 332 332 332 334 333 330
334 335 335 336 337 338 339 340 342 343 345 345 344 343 343 342 342 342 342 344 341 340 339 338 337 335 333 334 336 333 331 328 330 332 332 329 328 326 329 326 328 333 338 336 337 337 334 334 337 338 338 336 333 332 328 333 336 338 339 339 337 334 333 333 332 332 332 331 329 327 329 328 328 328 328 328 329 328 330 331 330 330 330 331 330
335 334 335 336 337 338 339 340 342 344 345 344 343 342 343 342 342 342 341 342 341 340 339 337 335 335 336 334 334 334 335 335 331 332 332 330 326 326 332 336 334 334 334 336 338 337 337 335 339 337 335 332 331 330 329 332 335 337 339 338 336 335 334 334 334 333 331 330 328 327 327 329 327 326 325 325 326 328 330 330 329 329 329 328 329
334 334 335 336 336 337 339 340 341 343 344 344 343 342 342 342 342 342 341 342 340 339 337 335 335 335 336 333 333 334 338 337 337 335 336 335 333 334 334 333 333 336 338 338 337 338 338 339 339 338 336 332 327 326 327 330 332 335 337 337 337 336 334 332 331 330 329 327 326 326 326 328 328 326 325 325 325 326 327 328 329 328 328 328 326
335 336 336 336 336 337 338 339 340 342 343 343 343 342 342 343 342 341 341 342 340 338 335 334 333 334 336 334 334 335 339 336 335 336 337 334 334 335 335 336 335 337 338 339 339 338 338 337 335 335 333 328 327 327 329 328 328 328 329 328 327 326 325 326 327 329 329 327 326 324 321 319 316 324 325 325 324 324 324 326 327 327 327 327 326
334 336 336 335 337 338 339 338 339 339 342 343 343 341 342 342 342 341 341 340 339 337 336 334 334 334 335 335 336 338 339 336 334 333 334 334 336 337 337 336 337 337 338 338 336 337 336 337 335 329 334 327 326 327 327 325 325 325 324 324 322 321 321 319 318 317 317 318 318 316 314 311 310 312 316 325 323 322 323 324 325 325 325 326 325
335 336 335 336 338 337 338 338 339 338 342 341 342 341 342 342 341 340 339 339 338 336 335 335 334 334 334 334 338 340 337 335 334 334 334 337 337 336 336 337 337 337 336 337 338 336 336 335 330 327 325 325 326 328 325 323 323 322 321 320 317 316 315 314 315 315 315 314 314 313 311 310 311 311 312 310 322 322 322 322 323 324 324 324 323
335 336 336 337 337 337 339 337 339 338 340 341 341 341 342 341 340 343 339 338 337 336 336 336 337 336 335 336 338 338 335 334 334 335 336 336 336 336 336 336 338 336 334 338 339 334 336 331 330 325 323 324 326 325 324 322 320 318 317 316 315 315 313 312 312 312 313 313 312 312 312 311 311 313 315 310 311 319 320 321 321 321 322 322 322
336 336 336 336 337 338 339 338 338 338 339 340 341 341 341 340 339 340 338 337 336 336 336 337 338 337 336 338 337 337 334 335 335 336 336 336 336 335 335 336 337 335 334 335 335 336 336 330 327 326 324 323 325 323 321 318 316 315 313 313 314 314 312 312 311 312 313 311 311 312 312 312 314 317 308 309 310 310 318 319 320 320 320 320 320
337 337 337 337 337 338 338 338 338 339 339 339 340 340 339 339 339 338 339 337 336 336 336 337 337 337 337 336 335 335 335 335 335 335 335 336 336 335 334 335 335 334 335 335 334 335 332 328 324 324 324 325 324 322 320 318 315 313 312 312 312 312 312 312 313 316 310 309 309 309 310 310 310 308 308 308 308 310 310 316 320 320 319 318 318
337 337 337 338 338 338 338 338 338 338 338 339 339 339 339 338 338 338 337 336 335 335 336 335 336 337 336 335 335 335 336 334 335 336 336 336 334 332 333 333 334 333 332 333 333 332 331 328 324 323 325 325 324 323 320 315 312 311 311 311 311 311 311 313 311 310 310 310 311 311 309 308 309 309 309 308 307 308 309 309 308 308 313 317 316
336 337 337 337 337 337 337 337 337 338 338 338 338 337 337 336 335 336 335 334 333 335 334 336 336 335 336 336 335 335 335 335 335 335 336 334 332 332 333 334 334 334 332 332 329 329 328 325 322 322 322 324 325 323 316 313 312 311 312 310 310 310 310 311 310 310 310 309 310 309 308 307 307 307 308 309 307 306 307 308 315 308 310 317 317
336 337 337 337 337 337 336 335 336 337 337 337 336 336 335 335 335 335 334 332 333 333 334 334 335 335 336 336 336 335 334 335 335 334 333 336 332 332 334 334 333 334 332 330 330 331 329 327 324 322 321 320 320 321 315 312 309 307 309 309 309 311 313 309 308 308 308 308 308 306 306 306 304 305 305 306 307 306 305 308 308 308 308 306 312
335 336 336 336 337 337 336 335 336 336 337 337 336 336 336 336 335 334 333 331 333 332 331 332 334 335 335 335 335 335 334 334 334 333 333 332 331 332 332 331 332 331 332 331 331 334 328 328 323 317 318 317 316 318 317 313 310 304 303 305 307 309 312 308 308 308 308 309 307 306 305 304 304 304 305 304 304 305 306 307 307 308 307 306 307
335 336 336 336 336 336 335 336 336 336 336 337 336 336 335 336 335 333 333 332 331 332 333 333 334 333 333 334 335 334 333 332 333 334 332 331 331 332 332 332 331 333 328 326 326 325 326 327 320 316 314 316 315 316 318 317 314 310 308 306 304 304 307 306 307 308 308 307 307 306 306 304 305 305 305 304 304 304 306 306 306 306 305 305 306
335 335 336 335 336 336 334 335 336 336 336 337 337 336 336 336 335 334 334 333 330 333 332 332 332 333 332 333 332 333 333 332 333 332 332 331 331 332 332 331 332 331 326 324 324 323 323 325 320 317 315 311 309 310 316 315 316 313 310 309 306 305 300 301 303 306 306 306 307 307 307 305 306 307 303 303 305 306 305 305 305 305 304 304 305
335 335 335 335 336 335 334 336 335 336 336 337 337 336 336 333 333 333 333 333 332 330 330 330 331 333 333 332 333 333 333 332 332 332 333 331 330 330 330 328 328 328 325 322 321 321 321 322 322 317 313 310 308 307 312 316 318 318 317 312 309 306 303 302 302 303 305 305 304 305 311 306 305 308 304 304 304 305 307 303 303 304 303 303 303
334 335 335 336 335 334 334 335 335 336 336 337 336 336 334 332 331 330 329 329 328 327 328 329 331 331 331 332 333 333 333 331 331 332 332 332 330 328 326 325 324 323 322 320 319 319 318 318 319 318 313 310 309 307 308 314 316 317 316 315 314 310 305 304 298 294 305 306 305 306 305 305 306 307 304 305 305 304 308 302 302 303 302 302 302
334 335 335 335 334 333 333 335 335 336 337 336 336 336 333 332 332 331 331 329 328 327 327 332 332 330 331 332 332 330 331 331 331 331 331 330 328 326 323 323 322 321 322 319 318 318 318 317 318 316 312 313 311 308 309 311 311 313 314 313 316 313 309 305 301 297 295 301 303 302 302 303 304 304 306 304 305 301 301 303 301 301 301 302 302
334 334 334 334 333 332 332 335 335 336 337 336 336 335 333 332 331 330 329 328 328 328 330 331 330 331 331 330 330 329 330 330 331 330 328 328 326 323 323 321 320 320 321 318 318 317 318 318 317 317 314 311 310 310 309 309 309 310 315 312 313 312 310 307 304 298 298 296 297 301 302 303 304 303 305 304 302 300 299 299 300 300 301 302 301
334 333 333 333 333 332 332 334 334 335 336 336 335 334 334 332 331 329 328 328 328 329 330 330 329 330 328 327 328 327 327 327 328 327 325 324 324 321 320 319 318 318 320 318 317 316 315 314 314 314 313 313 312 311 309 307 308 309 309 309 309 308 307 307 308 304 300 296 296 297 298 302 304 302 303 303 303 302 300 300 303 300 304 301 301
334 334 333 333 333 332 331 333 333 335 336 335 335 333 333 332 329 329 328 328 329 329 329 328 327 327 326 324 324 324 325 325 324 323 321 321 320 320 319 318 318 318 319 316 316 315 314 313 313 313 314 312 310 310 309 306 307 306 308 308 307 304 305 305 304 302 302 299 297 296 298 299 298 298 301 299 299 298 298 299 299 299 299 300 300
333 333 332 333 332 332 331 332 333 334 335 334 334 333 332 331 330 330 329 328 328 329 329 327 326 325 324 323 323 322 322 322 322 320 319 318 318 319 317 317 319 320 318 316 315 315 313 313 313 313 312 311 310 309 309 307 307 306 305 305 305 305 303 302 304 303 301 299 298 298 299 302 297 296 298 298 298 297 298 299 299 299 299 299 300
Wind_Speed
8 12 9 13 15 17 18 18 19 20 20 20 20 20 19 19 19 19 18 17 16 16 17 16 15 15 14 14 13 13 13 13 13 13 13 13 12 12 11 12 12 12 13 13 14 14 13 13 13 13 12 12 12 12 10 9 10 9 9 9 10 10 10 10 11 12 12 11 10 11 10 10 11 12 12 13 13 13 13 13 11 7 4 8 12
14 10 9 11 16 16 18 19 20 20 20 20 19 20 19 18 18 18 17 17 17 17 16 16 15 15 14 13 13 13 13 12 13 13 13 12 12 11 11 11 11 11 12 12 13 13 13 13 13 12 11 11 11 10 8 8 7 7 8 9 9 9 8 9 10 10 10 10 10 11 11 11 12 12 12 13 13 14 13 12 12 4 3 11 11
13 11 9 12 17 17 18 19 20 20 19 19 20 19 19 18 18 18 18 17 17 17 16 15 15 15 14 14 13 12 13 13 12 11 11 11 10 10 10 10 10 9 10 11 11 12 13 12 12 11 11 10 9 8 7 6 6 7 7 7 8 7 7 7 7 7 9 11 11 10 11 12 12 12 12 12 13 12 12 12 12 10 7 12 11
15 10 9 14 17 16 17 19 20 20 19 19 19 19 18 18 18 18 18 17 17 17 16 15 15 14 13 13 12 12 12 12 12 11 11 10 9 9 9 9 8 9 9 10 10 11 11 11 11 10 9 9 8 6 6 5 5 5 6 7 7 7 6 6 5 5 6 9 11 8 3 3 6 12 12 12 12 12 12 13 12 12 12 11 12
14 11 10 11 12 15 17 18 18 20 20 19 19 19 19 18 18 18 18 17 17 16 16 15 14 14 13 13 12 13 12 11 11 11 11 10 9 9 8 8 8 8 8 9 9 9 10 10 10 9 8 7 6 5 4 4 4 5 6 6 6 6 6 5 4 4 4 5 8 7 3 3 3 10 11 12 12 12 12 12 12 12 12 12 12
13 11 10 10 10 13 17 17 19 20 20 20 19 19 19 19 19 18 18 18 17 16 15 15 14 13 13 13 12 12 11 11 10 10 10 10 9 8 7 8 7 7 7 8 8 8 9 9 9 8 7 6 5 4 4 4 5 6 6 6 6 6 5 4 2 2 4 5 8 4 3 3 2 4 11 12 12 12 12 12 12 11 11 12 11
17 12 10 10 9 12 16 17 19 20 20 20 19 19 19 19 19 18 18 18 17 16 16 15 14 13 13 12 12 11 11 11 11 10 10 9 8 8 7 7 7 7 7 7 7 7 8 8 8 8 7 7 6 6 6 6 6 6 7 7 7 6 5 4 2 3 0 4 4 4 4 3 1 1 10 11 11 11 12 11 11 11 11 10 11
12 11 11 10 9 14 17 17 19 19 19 19 19 20 19 19 19 19 18 18 16 16 15 14 14 14 13 12 12 11 11 11 10 10 8 9 9 9 8 7 7 6 6 7 7 7 8 8 8 8 8 8 7 7 8 7 8 8 8 7 7 6 6 5 7 8 8 5 4 5 5 3 2 2 8 9 10 10 11 11 11 11 11 11 10
11 12 12 11 11 18 17 17 18 20 19 18 19 19 19 19 18 18 18 17 16 16 15 14 14 14 13 12 11 11 11 10 10 9 8 9 10 9 9 8 6 6 6 6 6 6 7 7 8 8 8 8 8 8 8 8 8 8 9 9 9 9 9 8 9 8 5 5 5 5 5 3 3 3 8 10 10 10 10 9 9 10 10 10 9
12 10 11 10 11 19 17 17 17 18 19 19 19 19 19 19 18 18 18 17 17 17 15 15 15 14 13 12 12 12 11 10 9 9 9 10 10 10 9 8 7 6 5 5 5 5 6 7 7 8 8 8 8 8 8 8 8 8 8 9 8 8 9 9 8 5 4 5 5 5 5 6 3 3 7 10 10 10 10 10 7 8 7 10 10
12 10 9 10 14 18 18 17 18 18 19 19 18 18 18 18 18 18 18 17 17 16 16 15 15 14 13 12 12 12 10 10 9 8 8 9 10 10 10 9 7 6 5 5 5 5 6 7 7 7 8 8 8 8 9 9 8 9 9 8 8 8 9 9 7 3 3 6 5 3 6 10 3 3 9 10 10 9 9 9 9 9 9 9 9
12 10 9 9 17 18 18 17 18 18 19 19 18 18 18 17 18 18 18 17 17 16 15 14 14 13 13 13 13 12 11 10 9 8 8 9 9 10 10 9 8 7 6 6 5 6 6 6 7 7 8 8 8 9 9 10 9 9 9 9 9 8 8 10 6 5 3 6 4 3 4 5 4 5 11 10 10 9 9 9 9 9 9 9 8
11 10 9 10 12 17 17 17 18 18 19 19 18 18 17 17 18 17 17 15 16 16 16 15 14 13 13 13 13 12 11 9 9 8 8 8 8 9 9 9 9 8 5 5 5 5 6 6 6 7 7 8 8 9 9 9 9 10 10 10 9 10 11 12 4 5 4 6 4 2 3 4 3 9 9 10 9 9 9 9 9 9 9 8 7
14 11 9 9 10 19 17 17 17 17 17 17 17 16 16 16 16 16 16 15 15 15 13 13 14 13 13 12 12 11 11 10 8 8 7 7 7 7 8 8 8 6 5 4 5 6 6 6 7 7 7 7 8 8 8 9 10 11 12 12 13 12 14 9 8 5 4 5 4 2 3 3 3 7 7 8 8 9 9 9 9 8 8 7 6
16 13 10 9 10 12 19 16 16 16 16 15 15 14 15 14 14 14 15 16 16 14 13 14 14 14 13 12 11 11 11 10 9 8 7 7 6 6 7 7 7 5 4 4 4 5 6 6 6 6 7 7 7 8 9 10 10 11 12 12 12 12 15 7 6 5 4 4 3 1 1 2 5 5 6 6 6 8 8 8 8 8 7 6 5
16 14 12 10 10 10 11 16 18 16 15 14 13 14 14 13 14 14 14 15 14 13 13 13 14 13 13 12 12 11 11 11 10 9 8 7 7 6 6 5 4 4 3 3 4 4 5 6 6 6 7 7 8 9 9 9 9 10 10 10 10 12 13 9 5 4 3 4 3 1 0 1 4 3 4 5 6 7 8 8 8 7 7 6 5
13 13 12 10 11 9 9 10 13 18 16 15 13 13 13 13 13 14 14 14 15 14 14 14 14 13 13 12 11 11 11 11 10 9 8 7 7 7 5 4 3 3 3 3 2 4 4 6 5 6 6 7 8 8 9 9 9 8 8 8 9 10 11 10 6 5 3 5 3 2 1 2 3 3 5 5 6 7 8 8 8 7 6 4 4
13 13 13 11 10 10 9 9 11 11 9 14 15 16 14 14 13 13 13 14 14 14 13 14 13 13 13 13 12 11 11 10 10 9 9 8 7 7 6 4 3 3 2 1 2 3 4 6 6 6 7 8 8 8 9 9 9 8 7 7 8 10 11 9 5 5 6 5 4 3 2 4 4 5 6 7 7 7 8 8 7 6 7 8 10
11 11 12 12 11 10 9 8 7 8 9 7 7 12 16 15 14 15 14 14 14 14 14 14 14 13 13 12 11 11 10 10 10 9 8 8 7 6 5 4 3 2 2 1 2 3 5 6 7 7 8 9 9 10 10 10 9 9 7 6 6 10 9 6 4 6 6 6 5 4 4 6 6 7 8 8 8 9 9 8 8 9 9 8 8
10 10 10 9 10 10 9 8 8 8 7 7 7 8 14 16 16 16 16 15 16 15 14 14 14 13 13 12 11 8 8 7 10 7 9 8 7 5 5 3 2 2 0 1 2 4 5 6 7 8 8 8 8 9 9 9 9 10 9 7 6 11 4 5 4 6 5 5 5 4 6 9 8 9 10 10 9 9 9 10 10 10 10 10 10
7 9 9 8 8 9 10 8 9 10 9 8 7 7 11 16 15 17 17 17 15 15 14 14 13 11 10 10 9 4 4 3 4 3 8 4 7 7 5 4 3 1 2 2 4 4 6 7 7 8 7 7 7 9 9 9 9 8 9 8 8 5 2 4 5 5 5 4 4 5 9 10 10 11 11 11 12 12 13 13 13 13 13 12 12
9 9 8 9 8 8 9 10 9 11 9 7 6 6 8 11 8 10 10 11 13 13 11 6 9 4 9 6 4 3 3 3 3 6 2 3 5 7 6 5 4 2 3 4 4 5 6 8 9 9 10 8 8 5 5 7 9 9 8 8 7 2 2 7 5 5 5 4 4 7 11 12 13 13 14 14 14 14 14 14 14 14 13 13 15
10 9 8 10 9 8 9 10 10 10 11 8 6 6 7 6 7 7 7 10 8 9 5 6 4 4 4 4 4 3 3 3 3 3 3 5 4 7 6 5 4 4 4 4 5 6 7 8 9 9 10 10 6 5 5 5 5 8 7 7 3 3 7 6 5 5 5 5 4 12 14 14 14 15 15 15 16 16 16 16 16 16 16 17 17
12 10 10 8 9 8 9 9 10 10 9 7 7 6 6 6 6 6 6 6 6 5 4 4 4 4 4 4 4 3 3 3 6 10 8 4 4 7 6 5 4 4 4 3 4 5 7 8 8 10 8 5 5 6 5 5 5 5 5 3 3 5 7 6 5 5 5 7 7 15 14 15 15 16 17 17 16 16 17 16 16 17 16 17 17
11 10 9 10 10 9 8 8 9 9 8 7 8 7 7 6 6 6 5 5 4 5 4 4 4 4 4 5 4 3 3 4 3 3 4 3 3 3 2 2 1 1 2 2 2 4 4 5 4 5 5 5 5 5 4 5 4 3 5 3 6 7 6 6 6 5 5 5 8 15 16 15 15 16 17 16 15 15 16 17 16 16 16 17 17
10 11 11 11 11 11 10 9 9 9 9 8 8 8 9 7 6 6 6 4 5 5 5 5 5 5 4 4 4 4 4 5 3 3 4 5 4 5 4 3 2 2 0 1 2 3 4 4 5 5 6 5 5 5 4 4 5 1 5 6 6 6 6 6 6 5 5 6 9 17 16 17 17 18 18 18 17 17 17 17 16 17 18 17 18
10 10 11 10 11 10 10 9 9 9 10 9 7 7 7 7 6 6 6 6 5 5 6 5 5 5 4 4 5 5 5 5 5 5 5 5 5 5 5 4 4 3 1 1 2 3 3 5 5 5 5 5 5 4 4 4 2 1 5 8 6 6 6 6 5 5 6 7 9 18 17 17 17 17 18 18 18 18 18 18 18 18 19 20 22
10 11 10 11 10 12 11 10 10 10 9 9 9 8 7 7 6 7 7 7 6 6 6 6 5 5 5 6 5 6 6 6 6 6 6 5 5 4 3 4 3 3 1 2 1 2 4 5 5 6 5 5 4 3 3 3 1 4 9 7 7 7 6 5 6 7 6 7 7 14 17 17 17 17 18 18 18 18 18 18 18 19 19 21 22
11 12 10 11 12 11 11 12 11 11 9 9 9 7 7 7 6 6 7 7 6 6 6 5 5 5 5 5 5 5 5 6 6 6 5 5 4 5 5 3 2 1 1 2 2 2 4 6 6 6 5 5 4 4 2 2 7 8 8 8 7 6 5 6 7 7 7 6 7 11 18 17 17 17 17 18 18 18 18 18 18 19 19 21 21
13 13 12 11 11 11 12 12 12 11 10 10 8 8 8 8 8 7 7 7 6 7 5 5 5 5 5 5 6 6 7 6 5 4 5 5 5 3 3 4 5 5 6 5 4 4 4 5 7 6 5 5 2 4 7 7 8 9 8 8 7 6 6 7 7 7 6 6 6 8 18 17 17 17 17 18 18 18 18 18 19 19 19 19 20
13 14 12 11 11 12 12 12 11 10 10 10 9 8 8 8 8 7 6 7 7 6 6 5 5 6 6 6 6 5 5 5 5 5 3 5 5 5 5 4 3 2 3 5 4 1 3 3 7 6 4 3 2 3 7 7 8 8 7 7 7 6 7 6 7 6 7 6 5 5 9 17 17 17 17 17 17 18 18 18 19 19 19 18 19
15 14 12 11 12 13 13 12 12 10 11 10 9 9 9 9 8 7 7 7 6 6 6 6 6 7 6 6 5 5 4 3 4 6 7 5 5 5 4 4 4 3 3 5 7 6 4 3 6 5 1 2 6 6 6 7 8 7 7 7 7 7 6 6 7 7 7 6 6 5 5 6 13 15 15 16 17 17 17 18 18 19 20 20 18
11 15 14 13 15 14 12 12 12 11 11 10 10 9 8 8 8 7 7 6 6 6 6 6 7 6 6 5 5 5 3 6 6 6 5 5 6 6 5 5 5 4 2 5 6 5 3 5 1 1 5 6 8 7 7 7 8 7 7 8 7 7 6 6 6 6 6 6 5 5 5 6 5 9 13 15 15 15 16 16 17 18 19 20 18
13 12 15 15 13 10 10 9 11 11 11 10 9 9 8 8 8 7 7 7 6 6 7 7 6 6 5 5 5 4 6 6 5 4 6 6 5 6 5 5 5 5 5 4 3 1 4 5 3 5 6 6 7 7 8 9 8 8 8 7 7 7 6 8 7 7 6 5 5 6 6 6 6 6 6 11 15 15 17 17 16 17 18 20 18
12 13 17 17 15 13 10 9 11 10 12 11 11 10 8 8 8 7 7 7 7 7 7 6 6 6 6 6 4 5 6 5 6 7 6 6 6 5 5 6 5 5 4 3 0 2 1 5 5 7 7 7 6 6 9 8 8 9 7 7 7 7 7 7 7 6 6 5 6 5 6 6 6 6 6 6 8 15 16 17 16 15 16 19 17
17 16 16 15 15 14 11 11 10 11 11 11 10 10 9 8 7 8 7 7 7 7 7 6 6 6 5 5 5 5 5 6 5 6 7 6 7 7 6 5 6 5 3 1 1 2 3 5 4 7 8 7 9 7 8 9 8 8 6 7 6 7 7 6 6 6 5 5 5 5 5 6 5 6 5 6 5 9 18 16 16 16 16 18 18
16 18 17 16 15 14 13 12 10 11 11 11 10 9 8 8 7 8 8 7 7 7 6 5 5 6 5 6 5 5 4 5 5 5 7 6 6 6 6 5 5 5 2 1 2 2 5 6 6 6 8 8 9 9 8 8 8 8 7 8 6 7 7 6 6 5 5 6 5 5 5 5 4 6 4 5 6 5 12 18 16 16 16 17 17
15 17 18 17 16 14 12 11 10 10 10 10 10 8 8 8 7 7 7 7 6 6 6 5 6 6 6 5 5 5 4 4 4 4 5 5 5 6 5 4 4 4 3 1 1 2 5 7 7 5 7 8 8 9 9 8 7 7 8 7 6 6 6 6 5 5 6 6 6 5 4 4 4 4 6 5 4 5 4 8 11 12 15 17 17
13 15 15 14 13 12 11 10 10 10 10 10 9 8 8 7 7 7 7 6 5 6 6 6 6 5 5 5 5 5 5 3 4 4 5 5 4 4 5 4 3 3 2 2 2 3 5 6 8 7 6 6 8 8 9 9 8 8 8 8 7 6 6 6 5 6 6 5 5 4 5 5 4 3 4 4 3 3 3 3 4 5 7 16 16
13 13 14 14 14 12 10 9 9 10 9 9 8 7 7 7 8 6 6 6 5 5 3 6 5 6 6 6 5 5 5 5 5 5 5 5 5 5 5 4 4 4 3 4 3 5 6 8 8 10 9 7 6 8 9 11 9 9 8 7 6 6 6 6 6 5 5 5 4 5 5 4 5 3 3 2 3 3 3 3 4 5 5 8 14
12 13 14 14 14 14 12 11 9 10 10 9 8 9 9 8 7 8 8 6 5 4 5 4 5 6 6 6 6 6 6 5 5 5 6 6 5 5 5 4 4 5 4 4 3 4 4 6 6 6 9 9 5 6 7 11 12 8 7 7 7 6 6 6 6 5 4 4 4 6 4 4 4 4 1 1 3 3 4 4 4 5 5 5 5
12 14 15 14 13 13 13 11 9 10 10 10 9 9 9 9 8 8 5 4 6 6 5 4 5 5 5 6 6 6 6 5 5 4 5 6 6 5 5 5 5 4 4 4 4 4 4 5 5 5 2 8 5 4 7 8 4 8 8 5 6 6 5 6 5 4 4 4 3 4 4 4 3 2 2 3 3 4 4 5 5 5 4 4 3
16 15 13 13 12 12 11 10 10 10 10 11 10 9 6 5 6 4 6 4 2 3 6 4 4 6 5 5 5 5 5 4 4 4 5 5 5 6 5 5 4 4 5 5 5 5 4 5 6 7 5 2 4 1 6 1 6 4 6 7 3 4 3 4 3 3 3 3 2 3 2 2 2 1 1 3 4 5 5 5 6 4 4 4 4
13 12 14 15 12 11 10 11 11 10 10 10 10 7 7 5 4 6 5 5 4 3 4 5 4 5 5 3 3 4 4 5 4 4 4 4 5 6 5 5 4 3 6 6 5 5 4 5 6 6 7 5 2 1 0 2 7 10 3 2 3 5 5 1 1 1 2 2 2 1 1 1 0 1 2 4 4 5 6 6 5 4 3 4 6
15 16 15 14 11 13 11 11 11 10 10 10 10 8 8 6 7 7 7 7 5 5 5 4 4 5 5 4 4 3 4 5 5 5 4 5 3 3 4 3 3 3 4 5 5 5 4 3 6 7 6 7 4 2 0 2 9 2 8 6 3 1 3 4 3 1 1 1 1 1 0 0 1 0 1 3 3 5 5 6 4 4 5 5 5
15 15 14 14 12 11 11 9 9 10 11 11 10 9 9 9 9 9 9 7 8 8 9 9 7 7 7 4 3 3 4 4 4 4 3 3 3 3 3 4 5 5 5 5 5 5 4 4 3 6 5 4 7 4 2 1 2 0 1 3 7 6 8 7 4 3 1 0 1 1 1 1 0 0 2 2 5 6 4 5 4 5 5 5 4
14 13 13 13 12 12 11 11 11 10 10 10 10 9 9 9 11 10 8 9 9 3 3 5 7 5 5 5 4 3 3 4 4 3 3 3 3 3 4 5 5 5 5 6 5 5 5 3 3 5 5 6 6 5 6 4 3 2 2 1 3 3 11 10 4 5 3 1 1 0 1 1 1 1 2 4 5 6 4 4 5 4 4 5 4
15 14 13 12 14 13 13 12 10 10 9 9 10 10 10 9 9 7 7 7 7 7 6 6 4 6 6 5 4 3 3 3 4 3 3 3 4 4 5 5 6 4 5 5 6 5 5 4 3 5 5 5 7 9 5 4 6 2 1 4 5 6 6 2 6 8 6 7 2 2 1 2 2 2 2 4 4 5 5 4 6 5 5 5 3
15 15 15 14 14 13 12 10 11 11 10 11 10 9 9 9 8 8 8 5 6 7 5 5 6 5 7 4 5 4 3 3 3 4 4 5 5 5 5 5 5 5 5 5 4 4 5 6 6 6 6 4 4 4 5 4 4 5 6 4 6 5 3 3 5 4 5 5 1 3 2 1 1 2 4 4 3 4 3 5 6 5 5 5 3
15 14 14 13 12 11 11 12 12 11 11 10 9 9 9 9 8 9 10 7 6 6 6 6 6 6 6 5 5 5 5 4 4 4 5 5 5 5 5 5 5 5 5 5 5 5 4 5 5 6 6 7 3 5 6 5 3 2 2 6 6 4 4 3 2 4 4 3 8 5 4 3 3 3 4 5 4 2 2 6 7 6 7 6 4
12 13 13 14 12 12 12 13 13 11 10 10 10 10 8 9 9 10 11 11 9 10 8 7 6 6 7 6 5 5 5 5 5 5 5 5 5 5 5 5 4 4 5 5 5 5 5 6 5 5 6 7 6 7 6 4 5 5 4 4 5 6 7 5 7 4 4 3 5 3 1 2 4 8 2 3 3 1 3 6 7 7 7 6 5
Wind_Direction
166 148 152 155 148 142 141 137 133 131 129 129 127 124 123 122 119 116 115 115 112 111 110 107 106 103 97 97 96 91 86 88 87 92 99 98 94 93 93 93 94 95 94 93 92 92 92 92 93 95 97 97 97 93 92 91 83 82 78 76 74 72 71 66 75 75 73 73 71 69 72 78 81 84 87 89 92 91 89 89 90 87 77 80 85
157 150 150 153 149 145 141 138 135 134 132 131 129 127 126 123 121 120 119 118 117 115 112 110 108 104 101 99 96 92 90 88 93 89 93 96 101 102 99 96 95 96 95 94 94 95 96 97 98 100 102 102 99 98 98 97 93 90 84 81 78 78 76 77 78 78 80 82 78 74 73 78 80 83 87 90 93 91 88 85 83 75 79 82 82
135 144 151 153 149 145 142 140 138 136 134 133 132 129 128 125 123 123 122 121 119 117 114 114 110 107 105 104 105 101 98 97 94 92 93 93 99 104 106 103 96 97 96 95 95 96 99 100 100 100 101 102 104 106 108 107 102 97 92 86 82 82 82 81 81 75 89 90 82 76 74 77 77 79 85 89 88 89 91 90 84 78 76 76 76
137 146 152 151 147 143 143 142 141 139 137 136 134 131 129 128 126 125 124 123 121 117 116 114 115 115 112 105 104 105 103 101 98 99 100 102 99 91 88 89 96 96 96 95 93 93 97 99 99 100 100 100 101 105 108 106 101 90 80 76 76 77 80 81 83 85 100 104 94 88 72 49 72 80 86 91 91 83 83 89 83 79 79 79 76
136 145 150 149 145 146 146 144 143 141 140 137 136 134 131 130 129 127 126 124 122 120 120 120 120 118 112 111 108 105 102 100 100 100 102 101 98 103 101 101 97 99 96 91 90 92 93 94 94 93 93 93 93 94 90 84 78 73 64 67 68 69 72 79 83 106 131 139 125 104 97 88 79 87 86 89 88 82 84 91 86 82 82 81 78
143 147 149 146 146 149 146 146 145 143 142 141 138 136 134 132 131 130 128 126 124 123 124 123 121 117 114 115 114 110 106 101 100 99 98 101 110 107 107 104 103 101 97 92 89 87 86 84 85 85 83 81 75 65 57 48 45 50 55 57 58 57 57 62 93 199 182 163 136 121 120 100 90 95 100 94 89 87 88 91 91 86 83 81 80
144 145 147 148 147 149 148 149 147 145 144 143 141 139 137 136 133 132 130 128 127 127 128 127 123 118 118 117 113 110 109 107 106 105 104 101 97 104 105 109 104 102 99 91 85 82 78 74 73 71 69 64 56 44 32 28 31 31 39 41 45 45 41 24 354 18 120 167 132 133 128 127 133 99 108 103 92 91 90 90 90 91 89 85 82
137 143 147 149 148 149 151 151 149 147 147 145 143 141 140 137 135 134 131 130 131 131 131 130 124 122 121 118 116 114 104 104 101 102 105 108 107 107 111 112 104 102 102 88 80 76 70 66 62 60 55 52 46 36 27 21 21 22 25 30 37 38 32 21 21 29 67 105 123 133 133 145 152 117 110 108 98 95 91 90 90 89 90 88 81
143 144 145 147 149 149 152 150 150 151 149 147 145 143 141 139 137 135 133 131 133 133 131 126 124 124 123 122 119 115 113 108 107 103 102 106 108 107 111 109 105 97 85 72 65 61 58 59 55 52 52 48 43 37 29 22 23 22 21 24 24 21 18 18 29 28 52 100 123 131 132 149 149 127 116 113 108 100 93 88 85 88 89 89 85
142 143 146 148 150 150 149 151 152 150 151 150 147 145 143 140 138 136 134 134 133 133 134 129 128 127 126 122 118 117 116 114 112 112 113 111 110 111 108 110 111 112 86 69 68 61 59 53 51 49 48 44 41 33 28 24 19 20 19 25 23 16 12 17 34 33 68 107 122 124 145 153 153 131 124 120 115 108 105 110 111 101 94 88 86
139 144 147 147 149 148 149 153 153 152 152 150 148 146 144 142 140 138 136 135 136 135 133 132 131 129 127 126 123 121 120 117 114 116 114 113 117 117 116 112 111 106 86 60 45 46 48 45 42 41 40 37 32 28 21 19 13 10 11 14 19 18 17 23 32 28 74 118 111 139 155 146 147 142 132 126 119 112 103 100 97 93 91 91 90
140 144 148 148 149 148 152 154 153 153 152 151 149 147 146 144 142 139 138 138 138 137 135 135 133 131 129 126 126 125 121 119 119 119 117 112 111 114 117 119 118 83 64 40 26 31 34 35 34 34 32 30 24 21 17 9 7 4 3 5 12 11 13 27 31 17 75 115 122 159 152 148 164 147 136 130 123 115 106 100 97 93 90 89 90
139 144 148 149 146 151 152 153 152 153 152 151 150 148 147 146 144 141 139 139 139 139 138 138 137 132 131 131 131 128 126 124 123 122 124 121 120 120 117 119 114 84 68 43 24 22 23 26 27 26 26 20 19 12 8 4 2 359 356 358 10 14 11 22 26 26 57 121 125 151 173 161 161 141 138 135 127 116 106 100 98 94 89 87 87
143 144 147 148 148 153 153 153 153 152 152 151 151 149 147 147 147 142 139 140 140 140 140 140 135 135 135 137 135 135 132 131 128 128 124 118 113 111 121 119 109 84 70 47 25 13 11 12 17 19 16 16 9 4 1 2 2 360 360 359 4 7 10 13 8 18 26 118 125 175 187 158 148 143 143 133 123 110 101 95 94 93 88 83 80
141 145 144 146 153 154 153 153 153 152 150 150 150 147 147 149 146 142 141 142 140 141 142 139 139 139 141 141 140 140 139 136 135 133 130 121 114 116 122 121 106 81 73 43 22 4 360 1 2 7 6 2 1 356 359 359 2 3 2 357 357 359 11 9 1 357 14 104 93 123 211 133 139 136 128 117 105 95 92 85 82 86 81 75 65
139 140 143 149 151 155 153 155 154 151 149 149 148 148 148 147 145 143 143 141 140 143 145 143 144 144 145 146 146 146 144 140 138 138 134 130 129 120 125 113 103 89 69 47 13 356 345 348 351 352 357 354 351 356 353 355 360 359 357 353 352 359 6 358 356 331 354 89 79 50 319 95 109 97 97 94 89 85 76 72 68 68 68 60 52
137 137 143 149 152 153 153 155 154 152 150 148 147 148 147 146 146 144 143 141 143 148 148 149 147 147 148 150 152 152 148 145 143 141 140 137 132 135 127 126 114 113 84 37 7 345 333 331 335 343 345 347 349 346 345 346 350 352 351 345 348 3 1 3 351 346 57 89 84 57 26 57 70 70 79 70 66 66 65 58 55 49 48 36 37
140 145 146 150 153 153 152 151 155 148 150 151 151 150 149 149 147 146 145 145 148 150 151 152 150 150 152 155 156 154 153 149 148 147 147 140 139 137 142 136 138 117 104 59 358 318 320 318 322 333 341 341 343 341 338 338 340 338 335 335 340 11 8 5 3 27 59 72 63 51 23 36 35 60 61 54 50 49 48 44 42 34 30 14 19
141 147 149 152 156 152 151 151 147 145 147 144 153 154 153 152 151 149 148 150 152 153 154 154 152 154 156 159 160 160 158 156 153 153 150 147 146 147 138 145 139 138 97 55 317 311 311 314 324 333 336 338 342 335 332 331 322 321 319 317 334 35 14 8 11 52 52 46 40 38 33 36 48 55 56 53 49 47 44 37 32 30 31 16 28
144 148 153 157 155 153 150 149 148 147 145 146 153 153 156 156 153 152 154 155 157 157 157 158 159 160 162 166 164 164 165 161 161 160 161 158 158 153 159 146 151 157 188 284 279 301 305 313 321 329 330 331 327 324 319 319 320 314 314 314 348 57 15 7 42 52 47 49 51 36 49 54 54 57 59 58 57 53 46 42 43 40 35 33 33
146 155 156 158 157 152 148 149 153 150 144 148 151 154 159 159 158 157 159 160 160 161 161 164 164 166 169 170 164 144 144 160 162 159 169 162 165 169 171 177 170 198 241 268 286 290 303 313 317 313 315 313 316 311 307 304 305 305 305 307 22 66 24 22 57 55 51 43 44 52 61 62 61 61 60 59 56 54 52 51 47 44 42 38 46
155 157 163 158 154 155 154 153 152 152 148 149 152 156 164 158 158 161 161 164 163 165 167 171 170 173 171 163 134 147 142 140 155 174 155 171 178 183 183 188 185 216 254 274 294 305 315 319 315 314 310 310 307 306 300 299 299 297 297 340 51 69 42 67 67 62 54 41 52 56 61 62 63 62 62 60 59 57 57 56 52 49 50 48 50
159 160 162 164 160 155 158 157 154 150 152 153 152 160 156 150 157 161 161 164 171 167 169 176 154 165 149 141 152 150 156 163 168 183 170 182 193 199 199 190 196 220 256 277 294 306 310 304 305 301 295 295 294 292 294 295 303 309 325 39 71 69 77 88 81 68 67 60 46 66 65 62 64 64 63 61 60 62 59 59 58 59 55 55 56
160 162 158 162 160 160 160 157 154 153 154 156 155 158 154 154 161 160 162 166 172 158 171 162 165 168 158 153 158 170 167 166 195 194 191 190 209 211 207 203 206 228 252 286 305 307 295 293 288 287 289 288 288 277 284 290 292 299 31 52 72 79 81 75 72 61 52 66 65 68 66 64 63 63 63 62 61 60 61 60 59 58 57 57 53
159 152 154 162 164 163 159 160 155 152 155 158 160 160 156 159 162 159 160 162 153 155 167 169 179 178 164 169 171 179 170 173 204 228 155 175 207 225 223 188 192 308 307 318 309 287 298 293 292 287 284 277 276 274 270 281 285 312 62 91 84 86 86 82 76 70 60 59 62 61 59 58 58 58 59 58 57 55 54 54 54 53 53 53 51
155 157 161 159 166 166 164 164 158 157 159 162 163 162 160 166 164 162 158 160 159 168 177 183 189 188 178 175 173 181 183 182 189 195 176 173 190 203 208 181 192 227 16 331 319 308 298 292 288 286 277 274 268 275 267 266 285 42 86 88 94 95 93 90 83 77 65 61 58 60 60 57 56 56 55 55 54 53 53 52 52 54 54 53 56
162 159 160 163 164 165 166 161 161 161 162 162 163 162 168 171 166 161 163 173 169 171 191 200 192 193 184 172 174 190 196 182 184 184 183 181 190 201 200 186 198 208 184 184 268 282 289 300 304 280 277 285 276 274 272 268 303 45 111 104 102 105 96 88 91 86 69 63 63 63 61 59 57 57 57 57 55 52 51 50 48 49 53 55 53
156 160 162 161 164 169 166 161 164 165 164 163 164 168 170 167 165 167 175 179 171 184 202 197 191 198 188 184 187 189 184 182 183 179 184 180 197 198 197 194 197 209 182 175 233 326 322 311 296 282 270 268 273 260 284 297 12 98 109 112 105 92 98 102 93 81 73 68 63 65 64 60 58 58 58 56 54 50 51 52 52 52 57 53 50
157 163 161 159 170 168 164 168 167 168 165 164 169 170 167 167 166 176 181 184 181 197 197 191 194 203 200 190 186 179 175 179 177 183 165 186 191 191 189 191 191 183 133 82 100 68 343 303 283 285 284 276 288 297 305 48 99 104 110 105 102 109 108 99 88 82 78 76 73 69 67 64 60 59 61 60 55 53 54 55 55 54 54 55 54
163 161 159 164 169 165 167 171 171 169 165 166 173 169 167 169 178 182 185 187 189 201 195 190 199 198 204 200 190 172 175 176 182 179 181 192 185 175 157 173 174 173 151 149 139 156 173 269 273 265 272 277 302 358 70 99 99 99 103 113 115 115 104 95 90 86 83 76 71 71 71 69 66 63 60 58 56 56 59 61 59 58 55 58 62
156 162 164 162 169 164 171 173 172 169 165 172 173 171 169 176 180 182 181 193 189 192 196 197 193 200 200 195 186 180 175 168 177 177 153 176 171 163 165 161 135 132 134 112 118 241 153 230 269 269 278 330 6 111 101 101 103 104 112 114 115 104 94 93 93 89 83 74 65 60 65 69 67 66 66 61 59 59 63 65 63 61 58 55 60
162 163 164 159 164 170 172 173 173 169 169 172 170 173 177 176 177 179 188 191 180 190 192 191 193 195 188 183 175 179 181 106 143 166 181 162 142 142 148 139 143 164 154 141 155 190 168 248 258 261 271 106 93 85 89 97 96 97 105 101 96 95 96 96 93 89 86 80 69 57 43 42 64 71 70 68 65 64 63 65 64 61 59 57 56
163 158 159 158 165 171 172 174 171 171 172 170 173 176 179 173 172 183 189 183 187 186 193 190 188 183 176 169 170 186 135 136 163 157 126 130 147 150 171 160 159 156 192 201 174 174 145 197 205 22 46 76 90 85 83 80 90 91 90 87 91 89 87 85 83 82 83 81 73 64 51 49 37 43 67 73 64 58 63 65 66 62 58 55 53
156 157 155 160 164 170 173 168 172 171 172 171 173 176 177 173 176 179 184 184 190 187 194 190 180 174 172 174 175 161 137 163 144 128 146 144 156 160 145 141 169 162 190 208 191 151 183 104 78 71 61 88 95 98 93 90 86 86 85 86 84 84 85 81 77 79 84 81 80 69 62 55 49 45 28 51 61 57 61 59 64 64 57 53 51
148 156 159 160 162 168 167 169 171 168 172 172 173 175 172 173 172 176 179 185 187 188 191 181 175 176 173 181 159 146 163 143 154 150 144 148 148 138 155 171 172 169 184 211 224 221 137 96 95 80 80 81 83 92 98 95 97 90 90 91 91 87 81 85 85 85 84 92 88 86 75 68 64 59 51 35 45 65 62 59 59 62 61 55 49
154 156 155 156 161 167 165 169 162 166 169 170 172 169 169 172 166 171 179 182 181 183 184 176 175 171 172 169 162 156 142 155 158 147 142 153 153 159 176 178 178 165 176 185 202 179 97 94 86 100 97 93 103 90 95 97 91 88 82 82 82 83 83 81 81 80 81 83 76 77 75 76 79 78 73 54 37 57 65 61 60 56 56 55 50
153 156 156 157 160 166 165 163 160 162 164 167 165 165 162 167 167 169 177 178 175 175 176 165 163 163 168 164 165 143 152 155 156 151 144 157 159 161 173 176 172 149 131 273 239 191 115 99 73 73 106 119 107 105 96 99 94 86 81 79 71 77 75 78 79 81 75 71 72 70 66 61 65 70 68 63 53 34 58 63 60 61 57 55 52
155 156 157 158 159 164 164 158 158 157 159 161 162 160 160 162 168 169 175 175 176 170 168 160 158 160 160 158 151 140 148 159 152 149 147 153 150 157 154 171 155 146 151 186 244 125 112 104 88 70 104 116 114 112 107 97 93 92 84 81 81 78 78 77 74 73 76 78 75 75 78 73 63 56 58 57 47 46 42 46 52 48 59 59 52
158 156 156 154 153 159 158 151 153 154 153 153 153 152 152 158 166 169 174 172 167 172 156 149 152 147 151 154 147 142 153 157 151 151 144 145 130 132 147 165 151 143 122 136 141 119 109 102 103 88 71 85 114 111 110 103 90 83 76 67 71 72 69 65 63 69 70 80 84 81 71 64 67 53 58 55 55 55 49 41 52 55 46 60 55
155 156 156 156 155 156 155 146 154 153 149 147 148 150 154 161 169 173 173 174 169 142 137 154 149 148 152 149 150 150 153 161 166 157 144 136 139 149 160 168 157 130 135 126 136 135 126 114 112 108 100 82 76 112 114 104 89 80 80 71 63 69 66 66 65 64 68 66 73 75 76 69 72 73 70 59 61 63 62 50 52 44 55 57 64
155 158 157 161 160 159 157 156 156 152 150 152 159 160 165 170 172 178 176 175 150 137 147 161 153 151 148 149 154 155 156 160 163 152 142 146 150 155 154 156 150 144 146 141 136 118 118 124 121 110 114 106 93 115 123 116 108 78 70 70 64 54 62 66 62 56 58 62 63 78 74 73 66 80 74 64 52 61 57 50 48 47 40 52 46
166 163 165 164 163 160 161 156 154 155 156 160 163 171 178 180 171 174 156 125 135 148 157 172 149 142 144 152 159 159 156 157 159 152 148 150 155 159 158 160 156 139 129 130 117 103 98 112 124 85 45 122 126 157 163 119 74 134 123 90 66 55 52 51 51 43 51 57 80 91 88 94 85 78 52 55 35 44 49 48 45 42 40 45 48
163 164 161 161 164 163 165 156 156 155 161 162 163 173 174 160 155 160 134 107 76 146 149 143 140 139 145 156 156 153 143 144 157 155 152 161 160 156 163 164 152 137 123 120 115 103 108 128 134 126 105 53 104 137 201 145 128 121 120 104 145 83 13 18 6 23 16 25 46 85 93 101 108 62 51 48 34 27 33 43 50 47 41 54 53
160 162 166 168 167 169 165 160 156 154 161 168 167 162 155 150 133 118 109 115 147 111 106 115 121 123 139 153 138 138 143 150 158 156 153 157 162 164 160 165 155 144 138 131 117 109 107 115 124 131 129 120 94 113 344 191 140 140 119 134 170 123 95 21 140 298 347 347 9 58 86 126 67 20 27 41 18 21 30 47 59 66 65 61 56
169 170 170 170 172 171 163 161 155 157 162 170 165 147 135 119 100 92 95 90 80 108 119 121 138 139 132 146 161 151 154 154 157 160 161 159 165 162 157 145 124 124 120 116 113 119 112 119 141 139 148 142 153 148 28 154 171 173 134 114 73 51 187 173 136 339 353 21 358 332 245 211 142 92 37 13 11 40 43 66 64 57 52 49 55
172 174 170 169 165 159 154 159 155 159 168 171 160 149 154 148 143 141 150 152 158 163 165 156 156 161 167 154 143 155 152 149 155 160 155 154 153 137 123 116 112 113 114 112 117 105 97 99 147 149 134 150 140 125 124 32 189 138 192 157 165 167 150 176 100 167 322 231 296 333 292 263 275 32 14 11 28 31 48 78 56 50 44 44 48
174 168 168 166 161 154 157 164 164 164 167 168 160 154 152 160 167 170 166 168 158 144 134 154 151 147 139 149 151 150 153 150 158 154 157 141 117 117 114 107 107 109 112 111 105 108 106 108 121 121 141 134 125 127 153 160 99 37 33 74 109 106 147 147 191 116 115 296 334 312 308 314 0 24 9 27 49 67 49 72 61 44 37 41 37
170 167 165 164 162 159 164 170 165 165 171 164 170 164 159 165 165 159 156 154 157 156 157 151 135 135 137 143 142 155 151 148 149 144 128 118 122 111 108 106 106 108 107 105 115 118 105 88 95 114 114 128 141 143 159 170 152 149 48 86 84 107 129 70 145 157 144 148 240 295 256 312 3 339 40 38 54 85 81 69 62 36 16 43 9
168 168 167 167 165 162 163 162 163 165 177 172 167 167 162 167 161 148 146 148 145 147 144 139 134 135 128 129 137 143 137 131 122 118 115 119 119 119 112 110 109 109 109 107 105 109 113 117 114 110 115 107 118 128 121 160 146 144 120 70 93 101 76 76 111 97 136 124 128 202 228 341 10 346 20 65 84 78 80 82 69 43 24 38 358
171 166 161 161 163 157 159 164 169 174 176 169 164 167 164 156 152 157 149 146 143 137 143 141 136 136 130 129 130 133 138 121 104 110 107 108 112 112 111 111 114 112 106 113 112 104 103 103 114 120 119 107 93 104 117 122 105 93 92 144 127 105 87 76 67 94 70 88 153 192 202 167 119 19 72 97 95 87 72 71 61 36 28 33 359
165 161 161 164 160 160 163 170 176 174 173 165 166 170 163 162 161 160 156 152 154 148 147 144 141 137 137 138 136 135 129 124 114 103 108 111 105 105 109 108 103 103 104 104 108 113 107 107 108 105 109 116 114 106 98 89 99 84 72 91 125 147 164 166 173 166 139 131 100 141 135 129 137 101 67 111 122 135 79 69 65 38 33 29 8